Вернуться в каталог

EXPLORER 7

АктивенНаукаVLEO
NORAD 22·PAYLOAD·🇺🇸 United States

Запущен Oct 13, 1959 с Cape Canaveral Space Force Station

Loading…

Ближайшие Пролёты (ближайшие 24 часа)

TLE

СвежийSource: Space-Track

Эпоха: Sep 14, 2026, 13:38 UTC

1 00022U 59009A   26257.56874168  .00010847  00000-0  34177-3 0  9999
2 00022  50.2420  17.4906 0074094 126.2564 234.5273 15.30757225814035

Отслеживайте EXPLORER 7 в реальном времени с AllMySat

Download on the App Store